Location: Isle of Man Observatory
(54.1776°N, 4.6264°W)
Time: 18:32:44
(UTC+02:00)

ISS - Visible Passes

Search period start: 16 May 2021 00:00
Search period end: 26 May 2021 00:00
Orbit: 417 x 422 km, 51.6° (Epoch: 15 May)

Date Brightness Start Highest point End Pass type
(mag) Time Alt. Az. Time Alt. Az. Time Alt. Az.
16 May -3.6 01:14:45 10° WSW 01:18:01 49° S 01:21:19 10° E visible
16 May -3.7 02:51:20 10° W 02:54:37 51° S 02:57:55 10° ESE visible
16 May -2.6 04:28:16 10° W 04:31:01 23° SSW 04:33:45 10° SSE visible
17 May -3.4 00:27:27 10° SW 00:30:39 42° SSE 00:33:51 10° E visible
17 May -3.7 02:03:54 10° W 02:07:13 55° S 02:10:32 10° ESE visible
17 May -3.0 03:40:43 10° W 03:43:42 29° SSW 03:46:41 10° SE visible
17 May -3.1 23:40:11 10° SW 23:43:17 34° SSE 23:46:23 10° E visible
18 May -3.7 01:16:29 10° WSW 01:19:48 56° S 01:22:53 12° ESE visible
18 May -3.0 02:53:12 10° W 02:55:46 34° SW 02:55:46 34° SW visible
19 May -3.7 00:29:05 10° WSW 00:32:24 54° S 00:35:42 10° E visible
19 May -3.5 02:05:44 10° W 02:08:58 44° SSW 02:09:22 42° S visible
19 May -3.5 23:41:43 10° WSW 23:44:59 49° S 23:48:16 10° E visible
20 May -3.6 01:18:17 10° W 01:21:35 50° S 01:23:11 26° SE visible
20 May -1.7 02:55:14 10° W 02:56:07 15° WSW 02:56:07 15° WSW visible
21 May -3.7 00:30:51 10° W 00:34:09 55° S 00:37:05 13° ESE visible
21 May -2.6 02:07:39 10° W 02:10:01 27° SW 02:10:01 27° SW visible
21 May -3.6 23:43:25 10° WSW 23:46:43 56° S 23:50:03 10° E visible
22 May -3.2 01:20:08 10° W 01:23:16 36° SSW 01:23:57 32° S visible
23 May -3.4 00:32:38 10° W 00:35:52 44° SSW 00:37:56 19° SE visible
23 May -1.6 02:09:51 10° WSW 02:10:52 14° WSW 02:10:52 14° WSW visible
23 May -3.5 23:45:11 10° W 23:48:28 50° S 23:51:45 10° ESE visible
24 May -2.4 01:22:07 10° W 01:24:51 23° SSW 01:24:53 23° SSW visible
25 May -2.7 00:34:31 10° W 00:37:30 29° SSW 00:38:55 21° SSE visible
25 May -3.0 23:46:59 10° W 23:50:07 36° SSW 23:52:57 12° SE visible
